TimeCST,TemperatureF,Dew PointF,Humidity,Sea Level PressureIn,VisibilityMPH,Wind Direction,Wind SpeedMPH,Gust SpeedMPH,PrecipitationIn,Events,Conditions,WindDirDegrees,DateUTC
12:53 AM,36.0,26.1,67,30.45,10.0,Calm,Calm,-,N/A,,Clear,0,2012-12-30 06:53:00
1:53 AM,33.1,26.1,75,30.44,9.0,Calm,Calm,-,N/A,,Clear,0,2012-12-30 07:53:00
2:53 AM,32.0,25.0,75,30.44,9.0,Calm,Calm,-,N/A,,Clear,0,2012-12-30 08:53:00
3:53 AM,33.1,26.1,75,30.43,8.0,Calm,Calm,-,N/A,,Clear,0,2012-12-30 09:53:00
4:53 AM,34.0,27.0,75,30.43,9.0,Calm,Calm,-,N/A,,Clear,0,2012-12-30 10:53:00
5:53 AM,34.0,27.0,75,30.42,9.0,Calm,Calm,-,N/A,,Clear,0,2012-12-30 11:53:00
6:53 AM,39.0,23.0,53,30.42,10.0,East,6.9,-,N/A,,Clear,90,2012-12-30 12:53:00
7:53 AM,39.0,21.9,50,30.44,10.0,East,3.5,-,N/A,,Clear,80,2012-12-30 13:53:00
8:53 AM,39.0,21.9,50,30.45,10.0,East,6.9,-,N/A,,Clear,80,2012-12-30 14:53:00
9:53 AM,42.1,21.9,45,30.48,10.0,East,4.6,-,N/A,,Clear,80,2012-12-30 15:53:00
10:53 AM,44.1,19.9,38,30.44,10.0,East,8.1,-,N/A,,Clear,80,2012-12-30 16:53:00
11:53 AM,48.0,18.0,30,30.41,10.0,ESE,9.2,-,N/A,,Clear,110,2012-12-30 17:53:00
12:53 PM,50.0,19.9,31,30.35,10.0,ESE,6.9,-,N/A,,Clear,110,2012-12-30 18:53:00
1:53 PM,51.1,24.1,35,30.32,10.0,East,8.1,-,N/A,,Mostly Cloudy,100,2012-12-30 19:53:00
2:53 PM,53.1,28.9,40,30.28,10.0,East,6.9,-,N/A,,Clear,100,2012-12-30 20:53:00
3:53 PM,55.0,34.0,45,30.25,10.0,SE,11.5,-,N/A,,Mostly Cloudy,130,2012-12-30 21:53:00
4:53 PM,55.0,35.1,47,30.23,10.0,ESE,9.2,-,N/A,,Overcast,120,2012-12-30 22:53:00
5:53 PM,55.9,37.9,51,30.23,10.0,ESE,8.1,-,N/A,,Overcast,110,2012-12-30 23:53:00
6:53 PM,55.0,39.0,55,30.21,10.0,East,8.1,-,N/A,,Overcast,100,2012-12-31 00:53:00
7:53 PM,55.0,41.0,59,30.20,10.0,ESE,6.9,-,N/A,,Overcast,110,2012-12-31 01:53:00
8:53 PM,54.0,46.0,75,30.21,10.0,SE,12.7,-,N/A,,Overcast,130,2012-12-31 02:53:00
9:53 PM,52.0,48.0,86,30.21,6.0,ESE,12.7,-,N/A,,Overcast,120,2012-12-31 03:53:00
10:38 PM,51.8,51.8,100,30.20,2.0,ESE,6.9,-,N/A,,Overcast,110,2012-12-31 04:38:00
10:53 PM,50.0,50.0,100,30.21,2.0,ESE,8.1,-,0.01,,Overcast,120,2012-12-31 04:53:00
11:07 PM,50.0,50.0,100,30.19,4.0,ESE,8.1,-,N/A,,Overcast,110,2012-12-31 05:07:00
11:22 PM,50.0,50.0,100,30.18,4.0,East,9.2,-,N/A,,Overcast,100,2012-12-31 05:22:00
11:53 PM,50.0,50.0,100,30.17,5.0,East,6.9,-,N/A,,Overcast,100,2012-12-31 05:53:00